Merida, Mexico

11:27 PM CDT on August 17, 2017 (GMT -0500)
Lic Manuel Crecencio Rejon

Weather History for MMMD - November, 2012

Change the Weather History Date:

Friday, November 30, 2012

  Actual Average Record
Temperature  
Mean Temperature 74 °F -  
Max Temperature 87 °F 85 °F 96 °F (2004)
Min Temperature 62 °F 66 °F 59 °F (2003)
Cooling Degree Days 10    
Growing Degree Days 24 (Base 50)    
Moisture  
Dew Point 64 °F    
Average Humidity 69    
Maximum Humidity 94    
Minimum Humidity 40    
Precipitation  
Precipitation 0.00 in - - ()
Sea Level Pressure  
Sea Level Pressure 30.07 in    
Wind  
Wind Speed 3 mph ()    
Max Wind Speed 12 mph    
Max Gust Speed -    
Visibility 6.3 miles    
Events      
Averages and records for this station are not official NWS values.
T = Trace of Precipitation, MM = Missing Value Source: Averaged Metar Reports

Daily Weather History Graph

Daily Weather History Graph

Search for Another Location

Airport or City:

Trip Planner

Search our weather history database for the weather conditions in past years. The results will help you decide how hot, cold, wet, or windy it might be!

Date:

Astronomy

Nov. 30, 2012 Rise Set
Actual Time 6:18 AM CST 5:16 PM CST
Civil Twilight 5:54 AM CST 5:40 PM CST
Nautical Twilight 5:27 AM CST 6:07 PM CST
Astronomical Twilight 5:00 AM CST 6:34 PM CST
Moon 7:09 PM CST (11/30) 7:51 AM CST (11/30)
Length of Visible Light 11h 45m
Length of Day
10h 57m
Waning Gibbous, 96% of the Moon is Illuminated
Nov 30
Waning Gibbous
Dec 6
Last Quarter
Dec 13
New
Dec 19
First Quarter
Dec 28
Full

Hourly Weather History & Observations

Time (CST) Temp. Heat Index Dew Point Humidity Pressure Visibility Wind Dir Wind Speed Gust Speed Precip Events Conditions
12:42 AM 68.0 °F - 64.4 °F 88% 30.10 in 7.0 mi Calm Calm - N/A   Clear
1:50 AM 66.2 °F - 62.6 °F 88% 30.08 in 7.0 mi Calm Calm - N/A   Clear
2:47 AM 64.4 °F - 62.6 °F 94% 30.11 in 7.0 mi Calm Calm - N/A   Clear
3:51 AM 64.4 °F - 62.6 °F 94% 30.07 in 7.0 mi Calm Calm - N/A   Clear
4:59 AM 64.4 °F - 62.6 °F 94% 30.07 in 7.0 mi Calm Calm - N/A   Clear
5:51 AM 62.6 °F - 60.8 °F 94% 30.10 in 5.0 mi Calm Calm - N/A   Clear
6:00 AM 62 °F - - %  in 3 mi Calm Calm - -  
6:43 AM 64.4 °F - 62.6 °F 94% 30.09 in 6.0 mi Calm Calm - N/A   Mostly Cloudy
7:46 AM 71.6 °F - 66.2 °F 83% 30.11 in 5.0 mi Calm Calm - N/A   Mostly Cloudy
8:47 AM 77.0 °F - 64.4 °F 65% 30.14 in 6.0 mi Calm Calm - N/A   Mostly Cloudy
8:50 AM 79 °F - 67 °F 59% 30.13 in 6 mi ESE 4.5 mph - -   Scattered Clouds
9:49 AM 80.6 °F 81.8 °F 62.6 °F 54% 30.12 in 7.0 mi Calm Calm - N/A   Mostly Cloudy
10:43 AM 82.4 °F 82.9 °F 60.8 °F 48% 30.11 in 7.0 mi East 4.6 mph - N/A   Mostly Cloudy
11:49 AM 84.2 °F 83.5 °F 57.2 °F 40% 30.09 in 7.0 mi North 4.6 mph - N/A   Mostly Cloudy
11:50 AM 85 °F - 70 °F 52% 30.09 in 6 mi NE 6.7 mph - -   Scattered Clouds
12:49 PM 86.0 °F 85.4 °F 59.0 °F 40% 30.04 in 7.0 mi North 6.9 mph - N/A   Mostly Cloudy
1:49 PM 84.2 °F 84.4 °F 60.8 °F 45% 30.02 in 7.0 mi NNW 8.1 mph - N/A   Scattered Clouds
2:50 PM 85 °F - 64 °F 40% 30.03 in 6 mi NNW 6.7 mph - -   Scattered Clouds
2:51 PM 84.2 °F 83.8 °F 59.0 °F 42% 30.01 in 7.0 mi North 11.5 mph - N/A   Scattered Clouds
3:44 PM 82.4 °F 83.4 °F 62.6 °F 51% 30.02 in 7.0 mi North 9.2 mph - N/A   Scattered Clouds
4:51 PM 78.8 °F - 62.6 °F 57% 30.02 in 7.0 mi North 9.2 mph - N/A   Scattered Clouds
5:50 PM 77 °F - 69 °F 70% 30.04 in 3 mi NNE 8.9 mph - -   Scattered Clouds
5:55 PM 75.2 °F - 66.2 °F 73% 30.06 in 7.0 mi NE 11.5 mph - N/A   Clear
6:45 PM 73.4 °F - 66.2 °F 78% 30.05 in 7.0 mi NNE 6.9 mph - N/A   Clear
7:51 PM 73.4 °F - 57.2 °F 57% 30.07 in 7.0 mi NNE 6.9 mph - N/A   Clear
8:42 PM 73.4 °F - 66.2 °F 78% 30.08 in 7.0 mi NNE 6.9 mph - N/A   Clear
8:50 PM 73 °F - 65 °F 71% 30.07 in 3 mi NNE 8.9 mph - -   Scattered Clouds
9:43 PM 71.6 °F - 66.2 °F 83% 30.09 in 7.0 mi Calm Calm - N/A   Clear
10:49 PM 71.6 °F - 66.2 °F 83% 30.09 in 7.0 mi Calm Calm - N/A   Clear
11:46 PM 71.6 °F - 66.2 °F 83% 30.07 in 7.0 mi Calm Calm - N/A   Clear